Location: Casa Rossa
(45.2389°N, 12.2056°E)
Time: 04:17:14
(UTC+00:00)

SL-27 R/B - Pass Details

Date: 14 July 2020
Orbit: 420 x 470 km, 74.7° (Epoch: 11 August)

Event Time Altitude Azimuth Distance (km) Brightness Sun altitude
Exits shadow 02:20:49 - 173° (S) 1,839 5.1 -11.2°
Reaches altitude 10° 02:21:28 10° 170° (S) 1,589 4.8 -11.1°
Maximum altitude 02:24:39 34° 104° (ESE) 768 3.9 -10.7°
Drops below altitude 10° 02:27:49 10° 38° (NE) 1,577 6.8 -10.3°
Sets 02:30:00 0° 29° (NNE) 2,443 7.8 -10.1°
